Home > Weather > Doha > Past weeks

Flag for Qatar Past Weather in Doha, Qatar — Yesterday and Last 2 Weeks

Now
93 °F

Sunny.


Feels Like: 105 °F
Forecast: 91 / 108 °F
Wind: 6 mph from North

Location: Doha International Airport

Current Time: Jul 24, 2016 at 6:08:15 AM

Latest Report: Jul 24, 2016 at 5:00 AM


Visibility: 10 mi

Pressure: 29.42 "Hg

Humidity: 56%

Dew Point: 75 °F

Location of DohaLocation

Past Weather in Doha — Graph

°F

Doha Temperature Yesterday

Maximum temperature yesterday: 113 °F (at 11:00 AM)
Minimum temperature yesterday: 93 °F (at 4:00 AM)
Average temperature yesterday: 101 °F

High & Low Weather Summary for the Past Weeks

 TemperatureHumidityPressure
High117 °F (Jul 9, 1:00 PM)80% (Jul 18, 4:00 AM)29.56 "Hg (Jul 18, 4:00 AM)
Low91 °F (Jul 15, 3:00 AM)1% (Jul 10, 2:00 PM)29.33 "Hg (Jul 23, 1:00 PM)
Average101 °F34%29.45 "Hg
* Reported Jul 9 5:00 AM — Jul 24 5:00 AM, Doha, Weather by CustomWeather, © 2016

Note: Actual official high and low records may vary slightly from our data, if they occured in-between our weather recording intervals... More about our weather records

Advertising

Doha Weather History for the Previous 24 Hours

Scroll right to see more
 ConditionsComfort  
Time TempWeatherWind HumidityBarometerVisibility
5:00 AM
Sun, Jul 24
93 °FSunny.6 mph56%29.42 "Hg10 mi
4:00 AM95 °FPassing clouds.3 mph47%29.39 "HgN/A
3:00 AM97 °FClear.8 mph44%29.36 "Hg6 mi
2:00 AM99 °FClear.7 mph47%29.36 "Hg5 mi
1:00 AM95 °FHaze.5 mph67%29.36 "Hg3 mi
12:00 AM93 °FHaze.7 mph75%29.36 "Hg2 mi
11:00 PM
Sat, Jul 23
95 °FHaze.8 mph75%29.39 "Hg3 mi
10:00 PM97 °FClear.10 mph60%29.39 "Hg5 mi
9:00 PM99 °FClear.9 mph50%29.36 "Hg5 mi
8:00 PM99 °FClear.12 mph47%29.36 "Hg6 mi
7:00 PM97 °FClear.10 mph67%29.33 "Hg4 mi
6:00 PM99 °FClear.9 mph60%29.33 "Hg4 mi
5:00 PM100 °FHaze.13 mph50%29.33 "Hg3 mi
4:00 PM102 °FHaze.13 mph51%29.33 "Hg2 mi
3:00 PM109 °FClear.13 mph22%29.33 "Hg4 mi
2:00 PM109 °FClear.8 mph23%29.33 "Hg5 mi
1:00 PM111 °FExtremely hot.7 mph20%29.33 "Hg5 mi
12:00 PM109 °FClear.8 mph22%29.36 "Hg6 mi
11:00 AM113 °FClear.7 mph13%29.36 "Hg6 mi
10:00 AM109 °FClear.9 mph19%29.39 "Hg4 mi
9:00 AM106 °FClear.12 mph23%29.42 "Hg4 mi
8:00 AM100 °FClear.9 mph35%29.42 "Hg4 mi
7:00 AM97 °FClear.9 mph44%29.42 "Hg4 mi
6:00 AM95 °FHaze.8 mph53%29.39 "Hg3 mi
Weather by CustomWeather, © 2016

See weather overviewHow to use our weather pages